Location: Ay?beleni
(36.6500°N, 30.3000°E)
Time: 01:51:23
(UTC+00:00)

Cosmos 1703 - Visible Passes

Search period start: 21 May 2022 00:00
Search period end: 31 May 2022 00:00
Orbit: 520 x 535 km, 82.5° (Epoch: 20 May)

Date Brightness Start Highest point End Pass type
(mag) Time Alt. Az. Time Alt. Az. Time Alt. Az.
21 May 3.6 00:56:01 29° SSE 00:57:50 62° E 01:01:44 10° NNE visible
22 May 3.8 00:45:01 34° SSE 00:46:26 55° E 00:50:18 10° NNE visible
23 May 4.0 00:33:58 37° SE 00:35:02 49° E 00:38:50 10° NNE visible
24 May 4.1 00:22:53 39° SE 00:23:36 44° E 00:27:21 10° NNE visible
24 May 5.5 01:58:51 10° W 01:59:47 11° WNW 02:00:43 10° WNW visible
25 May 4.3 00:11:45 38° ESE 00:12:11 39° E 00:15:51 10° NNE visible
25 May 5.4 01:47:01 10° W 01:48:18 12° WNW 01:49:48 10° NW visible
26 May 4.5 00:00:36 35° E 00:00:44 35° E 00:04:20 10° NNE visible
26 May 5.3 01:35:51 12° W 01:36:48 13° WNW 01:38:43 10° NW visible
26 May 4.7 23:49:25 31° E 23:49:25 31° E 23:52:47 10° NNE visible
27 May 5.2 01:24:40 14° W 01:25:18 14° WNW 01:27:31 10° NW visible
27 May 5.0 23:38:12 28° E 23:38:12 28° E 23:41:14 10° NNE visible
28 May 5.1 01:13:27 16° W 01:13:47 16° WNW 01:16:16 10° NW visible
28 May 5.2 23:26:57 25° ENE 23:26:57 25° ENE 23:29:38 10° NNE visible
29 May 5.0 01:02:12 18° WNW 01:02:16 18° WNW 01:04:58 10° NNW visible
29 May 5.4 23:15:41 22° ENE 23:15:41 22° ENE 23:18:01 10° NE visible
30 May 5.0 00:50:56 19° WNW 00:50:56 19° WNW 00:53:37 10° NNW visible
30 May 5.6 23:04:23 19° ENE 23:04:23 19° ENE 23:06:23 10° NE visible
